Volver al catálogo

FENGYUN 1C DEB

ActivoPO
NORAD 31209·DEBRIS·🇨🇳 China

Lanzado May 10, 1999 desde Taiyuan Satellite Launch Center

Loading…

Próximos Pases (próximas 24 horas)

TLE

EnvejeciendoSource: Space-Track

Época: Sep 7, 2026, 00:58 UTC

1 31209U 99025BKP 26250.04089794  .00004238  00000-0  11567-2 0  9995
2 31209  98.8864   2.7239 0020751 258.2369 101.6494 14.47749661686850

Sigue FENGYUN 1C DEB en tiempo real con AllMySat

Download on the App Store